Terug naar catalogus

FENGYUN 1C DEB

LostSSO
NORAD 40690·DEBRIS·🇨🇳 China

Gelanceerd May 10, 1999 vanaf Taiyuan Satellite Launch Center

Loading…

Volgende Passages (komende 24 uur)

TLE

VerouderdSource: Space-Track

Epoch: Jun 24, 2026, 08:00 UTC

1 40690U 99025EWW 26175.33357660  .00000476  00000-0  36891-3 0  9995
2 40690  99.3998 219.4001 0092102 343.3120  16.5016 13.95910210640768

Volg FENGYUN 1C DEB in realtime met AllMySat

Download on the App Store